[[{"header":{"parameterUnit":"m.s-1","parameterCategory":1,"la1":30.2991,"la2":30.254,"lo1":-89.0895,"lo2":-89.0444,"dy":0.0017,"dx":0.0017,"nx":28,"ny":28,"refTime":"2025-12-31T09:00:00:Z","depth":0,"parameterNumber":2,"parameterNumberName":"U-component_of_WINDS"},"data":[0,0,0,0,0,0,0,0,0,0,0,0,0,0,0,0,0,0,0,0,0,0,0,0,0,0,0,0,0,0,0,0,0,0,0,0,0,0,0,0,0,0,0,0,0,0,0,0,0,0,0,0,0,0,0,0,0,0,2.5594,2.5594,0,2.5659,2.566,2.5661,2.562,2.5618,2.5616,2.5614,2.5683,2.5687,2.5691,0,0,0,0,0,0,0,0,0,0,0,0,0,2.5437,2.544,2.5593,2.5594,2.5595,2.5659,2.566,2.5661,2.562,2.5618,2.5615,2.5613,2.5682,2.5687,2.5691,0,0,0,0,0,0,0,0,0,0,0,0,0,2.5504,2.5441,2.5593,2.5582,2.5582,2.5659,2.566,2.5661,2.562,2.5617,2.5615,2.5612,2.5681,2.5686,2.5692,2.5784,0,0,2.5708,2.5711,0,0,0,0,0,0,0,0,2.55,2.551,2.5583,2.5583,2.5583,2.5628,2.563,2.5702,2.5621,2.5606,2.5614,2.561,2.5668,2.5674,2.5693,2.5787,2.579,2.5709,2.5712,2.5715,2.5716,0,0,0,0,0,0,0,2.5495,2.5507,2.5619,2.5584,2.5584,2.5575,2.5582,2.5644,2.5652,2.5607,2.5604,2.5612,2.5667,2.5688,2.5694,2.5791,2.5709,2.5714,2.5717,2.5719,2.5967,2.597,0,0,0,0,0,0,2.5491,2.5503,2.5617,2.5621,2.5533,2.5581,2.5588,2.5617,2.5652,2.5654,2.5615,2.561,2.568,2.5688,2.5696,2.5808,2.5714,2.572,2.5723,2.5963,2.5967,2.5971,0,0,0,0,0,0,2.5488,2.5502,2.5615,2.5562,2.5575,2.5586,2.5619,2.5619,2.564,2.5657,2.5659,2.5634,2.5678,2.5689,2.5763,2.581,2.5722,2.5727,2.5959,2.5964,2.5969,2.6032,0,0,0,0,0,0,2.5484,2.5501,2.5535,2.5563,2.5578,2.5679,2.5622,2.5623,2.5649,2.5644,2.5676,2.5678,2.5676,2.5755,2.5768,2.5816,2.5731,2.5955,2.5962,2.5967,2.6025,2.6038,2.6049,0,0,0,0,0,2.5478,2.555,2.5537,2.5551,2.5621,2.5682,2.5691,2.5686,2.5653,2.5688,2.57,2.5677,2.5802,2.5763,2.5777,2.5828,2.5952,2.596,2.5967,2.602,2.6036,2.6049,0,0,0,0,0,0,2.5528,2.5553,2.5539,2.5622,2.565,2.5675,2.5719,2.5702,2.5741,2.5735,2.5728,2.5736,2.5813,2.5828,2.5783,2.592,2.5872,2.5883,2.5908,2.5923,2.5934,2.593,2.5736,0,0,0,0,0,2.5549,2.5595,2.5615,2.5686,2.5701,2.5708,2.5734,2.5728,2.5757,2.5769,2.5786,2.5816,2.5862,2.5893,2.5936,2.6027,2.6035,2.6069,2.6081,2.609,2.61,2.6152,2.6168,2.5995,2.5995,2.5995,0,0,2.5592,2.5611,2.5641,2.5696,2.5718,2.5767,2.5718,2.5772,2.5809,2.5778,2.5849,2.5862,2.5896,2.5979,2.6017,2.5993,2.615,2.61,2.6107,2.6112,2.6161,2.6177,2.6192,2.6,2.5999,2.5998,0,0,2.5696,2.5714,2.5777,2.5799,2.5832,2.5836,2.5851,2.5879,2.5887,2.5958,2.5936,2.5981,2.606,2.6085,2.6109,2.6224,2.6206,2.6239,2.6301,2.6351,2.6365,2.6377,2.642,2.6435,2.6248,2.6248,2.6248,0,2.5745,2.5818,2.5811,2.5867,2.5893,2.5867,2.5931,2.5953,2.5999,2.6018,2.5991,2.6092,2.6112,2.6202,2.6231,2.6249,2.6268,2.6235,2.6363,2.6375,2.6386,2.6428,2.6444,2.6252,2.6252,2.6251,2.6251,0,2.5879,2.593,2.5977,2.6021,2.6052,2.6112,2.6116,2.6148,2.614,2.6148,2.6222,2.6246,2.6295,2.6315,2.6308,2.6405,2.639,2.6363,2.6316,2.6407,2.6446,2.6461,2.6258,2.6256,2.6255,2.6254,0,0,2.6016,2.6057,2.6074,2.6095,2.613,2.617,2.623,2.6277,2.6306,2.6339,2.639,2.6459,2.6435,2.6461,2.6456,2.65,2.6593,2.6468,2.6469,2.6492,2.6705,2.6726,2.6744,2.6581,2.6584,2.6586,2.6703,0,2.6124,2.6227,2.6223,2.6321,2.6369,2.6345,2.6398,2.6426,2.6435,2.6478,2.6488,2.6538,2.6501,2.6518,2.656,2.6573,2.6636,2.6564,2.663,2.6633,2.6624,2.6764,2.6786,2.6895,2.6718,2.672,2.6722,0,2.6263,2.6301,2.6403,2.6433,2.6453,2.65,2.6544,2.6585,2.6617,2.6621,2.6651,2.664,2.6703,2.6652,2.674,2.6691,2.6718,2.6729,2.6733,2.674,2.6684,2.6777,2.693,2.6947,2.6745,2.6744,2.6742,0,2.6356,2.6432,2.6503,2.6522,2.6557,2.6591,2.6608,2.6637,2.6666,2.6705,2.6725,2.677,2.6796,2.6833,2.6835,2.6798,2.6924,2.6873,2.693,2.693,2.6958,2.6957,2.7119,2.6973,2.6973,2.6973,2.6972,0,2.6477,2.6541,2.6546,2.659,2.6661,2.6657,2.6728,2.6742,2.6768,2.6816,2.6798,2.6843,2.6842,2.6889,2.6891,2.6964,2.6975,2.6981,2.6982,2.6984,2.6984,2.7002,2.6996,2.6977,2.6976,2.6975,2.6974,0,2.6593,2.6598,2.6675,2.6703,2.6711,2.6763,2.6788,2.6831,2.6838,2.6899,2.6913,2.6926,2.698,2.6985,2.7048,2.705,2.7139,2.713,2.7128,2.7127,2.7184,2.718,2.7366,2.7391,2.7227,2.7229,2.723,0,2.6671,2.672,2.6753,2.6784,2.6802,2.6851,2.6881,2.6879,2.6911,2.6953,2.6991,2.7043,2.7085,2.7173,2.7189,2.7238,2.7231,2.7293,2.7238,2.724,2.7234,2.7232,2.7238,2.7304,2.7306,2.7307,2.7308,0,2.681,2.681,2.6854,2.6899,2.6936,2.6971,2.7005,2.7031,2.7033,2.7071,2.7126,2.7158,2.7223,2.7276,2.7324,2.7342,2.7327,2.7325,2.7341,2.7345,2.7343,2.7347,2.7159,2.7321,2.732,2.7319,2.7318,2.7318,2.691,2.6954,2.6984,2.7034,2.7059,2.7091,2.7133,2.7147,2.7192,2.7244,2.7241,2.7302,2.7335,2.7398,2.742,2.7469,2.7448,2.7471,2.7477,2.7483,2.749,2.7334,2.7477,2.7477,2.7477,2.7476,2.7476,0,2.705,2.7069,2.7115,2.7162,2.7202,2.7183,2.7219,2.7254,2.7308,2.734,2.7381,2.7446,2.7498,2.7518,2.7569,2.7604,2.7599,2.7618,2.7616,2.7621,2.7505,2.7487,2.7622,2.7622,2.7622,2.7622,2.7622,2.7622,2.7127,2.72,2.7204,2.729,2.7308,2.7368,2.7391,2.7421,2.7446,2.7519,2.7562,2.7574,2.7602,2.7655,2.7702,2.7707,2.7727,2.775,2.7752,2.7644,2.7629,2.7615,2.7598,2.7754,2.7755,2.7865,2.7866,2.7867]},{"header":{"parameterUnit":"m.s-1","parameterCategory":1,"la1":30.2991,"la2":30.254,"lo1":-89.0895,"lo2":-89.0444,"dy":0.0017,"dx":0.0017,"nx":28,"ny":28,"refTime":"2025-12-31T09:00:00:Z","depth":0,"parameterNumber":3,"parameterNumberName":"V-component_of_WINDS"},"data":[0,0,0,0,0,0,0,0,0,0,0,0,0,0,0,0,0,0,0,0,0,0,0,0,0,0,0,0,0,0,0,0,0,0,0,0,0,0,0,0,0,0,0,0,0,0,0,0,0,0,0,0,0,0,0,0,0,0,0.2364,0.2364,0,0.235,0.2349,0.2349,0.2328,0.2328,0.2327,0.2327,0.2311,0.2311,0.2311,0,0,0,0,0,0,0,0,0,0,0,0,0,0.2371,0.2371,0.2364,0.2364,0.2364,0.235,0.2349,0.2349,0.2328,0.2328,0.2327,0.2327,0.2311,0.2311,0.2311,0,0,0,0,0,0,0,0,0,0,0,0,0,0.2364,0.2371,0.2364,0.2352,0.235,0.235,0.2349,0.2349,0.2328,0.2328,0.2327,0.2326,0.2311,0.2311,0.2311,0.2321,0,0,0.231,0.231,0,0,0,0,0,0,0,0,0.2364,0.2363,0.2354,0.2352,0.2351,0.234,0.2346,0.234,0.2328,0.2337,0.2327,0.2326,0.2321,0.232,0.2318,0.232,0.232,0.231,0.231,0.231,0.231,0,0,0,0,0,0,0,0.2365,0.2364,0.2358,0.2353,0.2352,0.2346,0.2344,0.2345,0.2332,0.2336,0.2334,0.2333,0.232,0.2319,0.2318,0.2319,0.231,0.231,0.231,0.231,0.2326,0.2327,0,0,0,0,0,0,0.2367,0.2364,0.2359,0.2358,0.2356,0.2346,0.2344,0.2344,0.2332,0.233,0.2333,0.2332,0.2319,0.2318,0.2317,0.2327,0.231,0.231,0.231,0.2326,0.2326,0.2327,0,0,0,0,0,0,0.2367,0.2367,0.2359,0.2361,0.2359,0.2347,0.2347,0.2344,0.2343,0.233,0.2327,0.2334,0.2319,0.2317,0.232,0.2326,0.231,0.231,0.2325,0.2326,0.2326,0.2347,0,0,0,0,0,0,0.2368,0.2367,0.2372,0.2361,0.2359,0.2363,0.2347,0.2344,0.2343,0.2341,0.233,0.2328,0.2318,0.232,0.232,0.2326,0.231,0.2324,0.2325,0.2326,0.2346,0.2349,0.2351,0,0,0,0,0,0.2368,0.2378,0.2372,0.2372,0.2365,0.2364,0.2362,0.2351,0.2343,0.2347,0.2339,0.2328,0.2325,0.232,0.232,0.2326,0.2324,0.2325,0.2326,0.2345,0.2348,0.2351,0,0,0,0,0,0,0.239,0.2377,0.237,0.2377,0.2372,0.236,0.2365,0.2355,0.2352,0.235,0.2336,0.2334,0.2337,0.2332,0.2326,0.2334,0.2323,0.2324,0.2337,0.234,0.2343,0.2344,0.231,0,0,0,0,0,0.2396,0.2397,0.2385,0.2392,0.239,0.2378,0.2377,0.2368,0.2362,0.236,0.2351,0.2345,0.2342,0.2341,0.2338,0.2345,0.2341,0.2349,0.2351,0.2353,0.2354,0.2355,0.2358,0.233,0.233,0.233,0,0,0.2408,0.2401,0.2402,0.2397,0.2391,0.2391,0.2376,0.2377,0.2377,0.236,0.2361,0.2355,0.2346,0.235,0.2352,0.2346,0.2361,0.2355,0.2357,0.2356,0.2357,0.2359,0.2362,0.2331,0.2331,0.2331,0,0,0.243,0.2425,0.243,0.2425,0.2417,0.2408,0.2409,0.2399,0.2394,0.2395,0.2381,0.238,0.2377,0.2371,0.2367,0.2384,0.2374,0.2384,0.2397,0.2398,0.24,0.2402,0.2407,0.2409,0.2385,0.2385,0.2385,0,0.2446,0.2446,0.2434,0.2435,0.2432,0.2416,0.242,0.2416,0.2407,0.2405,0.2399,0.2392,0.2386,0.2387,0.2391,0.239,0.2389,0.2385,0.2401,0.2403,0.2404,0.2408,0.241,0.2386,0.2386,0.2386,0.2386,0,0.2465,0.2465,0.247,0.2462,0.2459,0.2462,0.2449,0.2448,0.2439,0.2431,0.2431,0.2422,0.2417,0.2416,0.2408,0.2416,0.2412,0.2404,0.2392,0.2408,0.2412,0.2413,0.2388,0.2387,0.2387,0.2387,0,0,0.2502,0.2485,0.2487,0.2482,0.2471,0.2471,0.2472,0.2466,0.2465,0.2459,0.2458,0.2455,0.2446,0.2442,0.2433,0.2434,0.2446,0.2425,0.2424,0.2428,0.2452,0.2458,0.246,0.2439,0.2439,0.2439,0.2452,0,0.252,0.2522,0.251,0.2515,0.2513,0.2497,0.2498,0.2491,0.2482,0.248,0.247,0.2467,0.2457,0.2454,0.2454,0.2444,0.245,0.2443,0.2437,0.2437,0.2439,0.2462,0.2469,0.2482,0.2454,0.2454,0.2454,0,0.2543,0.2538,0.2542,0.2529,0.2528,0.2529,0.2522,0.252,0.251,0.2504,0.2499,0.2488,0.2486,0.2476,0.2473,0.2468,0.2465,0.2459,0.2459,0.2458,0.2446,0.2461,0.2486,0.2487,0.2456,0.2456,0.2456,0,0.2568,0.2562,0.2563,0.256,0.2545,0.2546,0.2539,0.253,0.2526,0.2519,0.2517,0.251,0.2506,0.25,0.2487,0.2481,0.2485,0.2474,0.2479,0.2479,0.248,0.248,0.2504,0.2479,0.2479,0.2479,0.2479,0,0.259,0.2593,0.2574,0.2574,0.2577,0.2562,0.2564,0.2556,0.2547,0.2545,0.2531,0.2529,0.2512,0.2508,0.2497,0.2495,0.2494,0.2488,0.2485,0.2489,0.2489,0.2486,0.2485,0.248,0.248,0.2479,0.2479,0,0.2618,0.2605,0.2605,0.2591,0.2587,0.2589,0.2576,0.2576,0.2566,0.2564,0.2562,0.2547,0.2541,0.2527,0.2517,0.251,0.251,0.2506,0.2514,0.2512,0.2517,0.2516,0.2539,0.2541,0.2516,0.2516,0.2516,0,0.2632,0.2634,0.262,0.2617,0.2611,0.2608,0.2604,0.2589,0.2586,0.2574,0.2574,0.2567,0.2561,0.2552,0.2539,0.2531,0.2525,0.2534,0.2524,0.2527,0.2524,0.2524,0.2523,0.2536,0.2536,0.2537,0.2537,0,0.2659,0.2652,0.2648,0.264,0.2636,0.263,0.2622,0.2621,0.2604,0.26,0.2594,0.2589,0.2578,0.2571,0.2561,0.2553,0.2541,0.254,0.254,0.2544,0.2548,0.2545,0.2519,0.2539,0.2539,0.2539,0.2539,0.2539,0.268,0.268,0.267,0.2664,0.2657,0.265,0.2648,0.2637,0.2632,0.2623,0.2614,0.2608,0.2596,0.2581,0.2574,0.2568,0.2563,0.2564,0.2564,0.2564,0.2566,0.255,0.2567,0.2567,0.2566,0.2566,0.2566,0,0.2705,0.2697,0.2692,0.2682,0.2677,0.2667,0.2658,0.2654,0.2649,0.264,0.2633,0.2625,0.2617,0.2603,0.2594,0.2592,0.2586,0.259,0.2589,0.2587,0.2572,0.2572,0.2594,0.2594,0.2594,0.2594,0.2594,0.2594,0.2718,0.2717,0.2709,0.2703,0.2695,0.2689,0.2684,0.2677,0.2669,0.266,0.2654,0.2645,0.2633,0.2622,0.2614,0.261,0.2606,0.2612,0.2606,0.2591,0.2589,0.2586,0.2586,0.2611,0.2611,0.2622,0.2622,0.2622]}]]